Regional Weather Roundup
Issued by NWS

Home | Current Version | Previous Version | Graphics & Text | Print | Product List | Glossary On
Versions: 1 2 3 4 5 6 7 8 9 10 11 12 13 14 15 16 17 18 19 20 21 22 23 24 25 26 27 28 29 30 31 32 33 34 35 36 37 38 39 40 41 42 43 44 45 46 47 48 49 50
000
ASUS45 KABQ 282210
RWRNM
WEATHER ROUNDUP FOR NEW MEXICO
NATIONAL WEATHER SERVICE ALBUQUERQUE NM
300 PM MST FRI NOV 28 2014

NOTE: "FAIR" MEANS FEW OR NO CLOUDS BELOW 12,000 FEET AGL WITH NO
       SIGNIFICANT WEATHER OR OBSTRUCTIONS TO VISION.

      THIS PRODUCT IS RELEASED AS TWO VERSIONS.  ONE VERSION NEAR
      THE TOP OF THE HOUR CONTAINING PRELIMINARY DATA FROM ALBUQUERQUE
      AND OTHER STATIONS.  A FINAL VERSION WITH ADDITIONAL DATA IS
      ISSUED ABOUT 10 MINUTES AFTER THE HOUR.

NMZ501-503-504-510>518-282300-
NORTHWEST PLATEAU/NORTHCENTRAL MOUNTAINS

CITY           SKY/WX    TMP DP  RH WIND       PRES   REMARKS
FARMINGTON     SUNNY     61  13  15 VRB3      30.09F
LOS ALAMOS     SUNNY     55  19  24 CALM      30.17S
SANTA FE       SUNNY     58  15  18 CALM      30.12F
TAOS           MOSUNNY   55  19  24 W3        30.16F
ANGEL FIRE     FAIR      48   7  19 W16G25    30.17S

$$
NMZ402-403-502-505>509-282300-
WESTCENTRAL MOUNTAINS/SOUTHWEST MOUNTAINS

CITY           SKY/WX    TMP DP  RH WIND       PRES   REMARKS
GALLUP         SUNNY     67   4   8 SW15      30.14F
GRANTS         SUNNY     72   0   6 W12       30.14F
SILVER CITY    SUNNY     66  16  14 S9        30.16F

$$
NMZ407-409-411-412-282300-
SOUTHERN DESERTS

CITY           SKY/WX    TMP DP  RH WIND       PRES   REMARKS
LORDSBURG      FAIR      70  21  16 SE8       30.10F
DEMING         SUNNY     68  19  15 SW5       30.10F
LAS CRUCES     SUNNY     67  17  15 SW3       30.12F
HOLLOMAN AFB   SUNNY     67  21  17 VRB5      30.09F
ALAMOGORDO     SUNNY     68  19  15 S6        30.11F
T OR C         SUNNY     66  19  16 S12       30.10F

$$
NMZ519>523-282300-
CENTRAL VALLEYS/CENTRAL HIGHLANDS

CITY           SKY/WX    TMP DP  RH WIND       PRES   REMARKS
ALBUQUERQUE    MOSUNNY   60  19  20 S10       30.12F
DOUBLE EAGLE   MOSUNNY   57  18  21 VRB7      30.13F
MORIARTY ARPT  FAIR      68  12  11 W10       30.13S
CLINES CORNERS SUNNY     64  13  13 W17G25    30.13S
BELEN          FAIR      62  21  21 SW5       30.11F
SOCORRO        FAIR      66  19  16 S12       30.10F

$$
NMZ524>526-539-540-282300-
SOUTHCENTRAL MOUNTAINS

CITY           SKY/WX    TMP DP  RH WIND       PRES   REMARKS
RUIDOSO        SUNNY     63  18  17 NW12      30.19S

$$
NMZ527>531-282300-
NORTHEAST HIGHLANDS/NORTHEAST PLAINS

CITY           SKY/WX    TMP DP  RH WIND       PRES   REMARKS
LAS VEGAS      MOSUNNY   68  -2   6 W21       30.06S
RATON          CLOUDY    57  14  18 SW6       29.98F
CLAYTON        PTSUNNY   73   0   5 W16G24    29.91F

$$
NMZ532>537-282300-
EASTCENTRAL PLAINS

CITY           SKY/WX    TMP DP  RH WIND       PRES   REMARKS
TUCUMCARI      SUNNY     80  11   7 W21       29.92F
CANNON AFB     SUNNY     77  14   9 SW17      30.00S
CLOVIS AIRPORT SUNNY     77  18  10 SW20      29.99S

$$
NMZ028-029-538-282300-
SOUTHEAST PLAINS

CITY           SKY/WX    TMP DP  RH WIND       PRES   REMARKS
ROSWELL        SUNNY     69  30  23 S7        30.01F
CARLSBAD       SUNNY     74  26  16 SE5       30.01F
HOBBS          SUNNY     72  21  15 SW13      30.03F


$$


USA.gov is the U.S. government's official web portal to all federal, state and local government web resources and services.